Date,TemperatureHighF,TemperatureAvgF,TemperatureLowF,DewpointHighF,DewpointAvgF,DewpointLowF,HumidityHigh,HumidityAvg,HumidityLow,PressureMaxIn,PressureMinIn,WindSpeedMaxMPH,WindSpeedAvgMPH,GustSpeedMaxMPH,PrecipitationSumIn
2012-8-31,98,85,65,68,64,58,86,53,28,29.93,29.85,2,0,0,0.00
2012-9-1,74,71,68,68,67,66,94,88,79,29.95,29.92,0,0,4,0.00
2012-9-2,95,84,64,68,64,58,86,54,37,29.91,29.78,2,1,6,0.00
2012-9-3,86,78,71,73,70,67,90,76,62,29.89,29.77,2,0,3,0.01
2012-9-4,99,82,69,73,68,57,96,66,30,29.82,29.64,4,1,6,0.02
2012-9-5,91,76,64,62,54,44,72,48,21,29.89,29.65,2,0,3,0.00
2012-9-6,91,72,55,61,50,44,81,50,27,29.96,29.70,5,1,7,0.00
2012-9-7,78,66,62,57,55,48,78,67,38,30.01,29.85,2,1,4,0.00
2012-9-8,87,77,60,50,44,40,68,33,20,30.15,29.92,3,1,11,0.00
2012-9-9,82,65,49,51,46,41,80,53,28,30.21,30.05,1,0,3,0.00
2012-9-10,87,78,55,52,50,48,75,39,26,30.08,29.84,6,4,12,0.00
2012-9-11,94,78,60,53,51,46,73,44,21,29.87,29.76,7,3,11,0.00
2012-9-12,79,70,55,54,52,50,94,56,37,30.16,29.83,4,2,7,0.68
2012-9-30,83,81,79,49,46,41,32,29,26,29.91,29.87,0,0,0,0.00
2012-10-8,72,60,41,38,34,32,78,42,24,29.98,29.76,6,3,14,0.00
2012-10-9,58,50,38,44,33,23,78,52,31,30.14,29.77,3,1,6,0.00
2012-10-10,37,35,34,28,28,27,77,74,69,30.18,30.15,0,0,3,0.00
2012-10-11,48,47,46,31,29,27,51,50,49,30.35,30.30,1,0,2,0.00
2012-10-12,54,46,37,43,32,23,69,58,46,30.36,30.01,4,1,9,0.00
2012-10-13,75,67,56,65,62,55,98,84,72,29.81,29.57,5,1,10,0.45
2012-10-14,69,59,50,51,42,38,89,57,34,29.96,29.69,3,1,7,0.33
2012-10-15,75,58,43,49,43,39,92,61,32,29.98,29.72,3,1,6,0.00
2012-10-16,83,65,52,50,48,44,88,57,27,29.72,29.35,3,1,5,0.00
2012-10-17,67,59,52,52,39,22,89,48,26,29.56,29.27,4,2,9,0.03
2012-10-18,52,48,44,42,33,24,90,60,34,29.63,29.49,5,3,13,0.17
2012-10-19,48,45,41,42,41,39,92,85,76,29.84,29.62,5,2,12,0.09
2012-10-20,67,51,36,47,41,35,97,73,39,29.83,29.68,4,1,11,0.00
2012-10-21,81,64,48,64,54,43,88,72,51,29.76,29.67,5,1,10,0.04
2012-10-22,68,60,56,65,57,53,95,88,79,29.76,29.70,2,0,5,0.01
2012-10-23,78,61,53,65,57,52,98,89,63,29.76,29.61,3,1,6,0.01
2012-10-24,58,54,46,57,53,44,98,97,94,29.77,29.69,3,1,5,0.05
2012-10-25,46,39,35,44,35,28,96,85,71,30.37,29.65,5,3,14,0.59
2012-10-26,43,37,31,30,28,26,87,70,54,30.55,30.35,3,1,14,0.00
2012-10-27,47,37,26,32,27,23,91,68,49,30.46,30.28,2,0,4,0.00
2012-10-28,52,43,35,34,31,28,79,62,46,30.35,30.21,5,2,8,0.00
2012-10-29,59,48,42,36,32,30,64,54,40,30.25,30.08,7,4,12,0.00
2012-10-30,58,45,38,33,31,28,73,58,34,30.11,30.03,2,1,9,0.00
2012-10-31,62,46,32,36,32,26,81,60,36,30.09,29.99,2,0,6,0.00
2012-11-1,57,48,39,44,39,35,92,73,56,30.00,29.93,2,0,7,0.00
2012-11-2,56,44,38,37,32,30,92,64,41,30.09,29.95,4,1,7,0.00
2012-11-3,59,43,29,38,33,27,90,70,44,30.23,30.09,1,0,6,0.00
2012-11-4,60,48,40,45,39,35,94,73,48,30.21,29.98,6,1,8,0.08
2012-11-5,46,42,40,44,40,38,95,93,88,30.16,30.02,4,1,8,0.01
2012-11-6,58,47,39,40,35,30,92,66,37,30.09,29.96,6,2,10,0.00
2012-11-7,56,44,34,36,32,30,86,65,44,30.20,30.03,3,1,8,0.00
2012-11-8,68,52,40,41,36,32,76,58,35,30.03,29.84,5,2,11,0.00
2012-11-9,67,55,41,58,47,38,88,74,57,29.86,29.61,4,1,11,0.00
2012-11-10,77,66,44,58,56,42,93,71,51,29.63,29.40,12,6,20,0.19
2012-11-11,44,30,26,40,22,15,94,72,48,30.21,29.63,4,2,9,0.01
2012-11-12,42,31,22,21,18,15,78,60,37,30.42,30.21,4,2,11,0.00
2012-11-13,56,40,25,35,25,18,77,57,27,30.43,30.27,4,2,8,0.00
2012-11-14,59,46,34,32,29,26,76,52,29,30.32,30.19,4,2,9,0.00
2012-11-15,45,44,44,31,31,30,61,58,57,30.20,30.18,3,1,8,0.00
2012-11-23,37,30,22,16,12,10,67,49,37,30.53,30.44,4,2,9,0.00
2012-11-24,26,23,21,15,13,11,75,67,60,30.44,30.27,4,1,9,0.00
2012-11-25,36,34,34,28,28,27,79,77,71,30.17,30.06,1,0,2,0.00
2012-11-26,36,29,18,27,22,14,88,73,55,30.50,30.17,3,1,5,0.00
2012-11-27,44,29,15,28,20,12,88,73,50,30.49,30.23,5,1,10,0.00
2012-11-28,49,35,22,31,26,20,95,71,42,30.42,30.16,4,1,7,0.00
2012-12-3,62,52,39,49,38,26,98,62,37,30.09,29.60,5,1,8,0.01
2012-12-4,63,45,33,31,26,22,67,49,25,30.30,30.09,1,0,4,0.00
2012-12-5,41,37,33,28,27,26,77,68,55,30.31,30.26,2,0,5,0.00
2012-12-8,39,38,36,33,31,30,87,76,71,29.93,29.88,4,2,7,0.00
2012-12-9,38,26,15,35,19,6,92,74,58,30.17,29.84,5,3,10,0.00
2012-12-10,30,18,6,9,5,1,80,59,35,30.18,29.98,4,1,7,0.00
2012-12-11,45,33,21,24,18,7,80,57,38,30.08,29.99,6,2,10,0.00
2012-12-12,34,33,32,20,19,19,58,55,53,30.03,30.01,4,2,7,0.00
2012-12-19,38,34,30,34,32,29,97,93,83,29.92,29.76,1,0,3,0.04
2012-12-23,24,17,10,16,13,7,90,82,67,30.12,30.03,1,0,3,0.00
2012-12-24,20,15,9,13,10,6,90,82,73,30.26,30.10,3,1,7,0.00